Regional Weather Roundup
Issued by NWS

Home | Current Version | Previous Version | Graphics & Text | Print | Product List | Glossary On
Versions: 1 2 3 4 5 6 7 8 9 10 11 12 13 14 15 16 17 18 19 20 21 22 23 24 25 26 27 28
430
ASUS45 KSLC 211310
RWRUT

UTAH REGIONAL WEATHER ROUNDUP
NATIONAL WEATHER SERVICE SALT LAKE CITY UT
700 AM MDT THU MAY 21 2015

UTZ001>011-023>025-211400-

NORTHERN UTAH

CITY           SKY/WX    TMP DP  RH WIND       PRES   REMARKS
BRIGHAM CITY   CLEAR     50  43  77 NW7       30.01S
HILL AFB       CLEAR     48  41  76 E16G26    30.01S
LOGAN          CLEAR     42  40  92 NE7       30.03S
OGDEN          PTCLDY    49  43  80 CALM      30.00R
PROVO AIRPORT  PTCLDY    45  41  87 CALM      30.02S
SALT LAKE CITY PTCLDY    49  45  86 SE6       29.99S
VERNAL         SUNNY     46  40  79 N3        30.09R
WENDOVER       CLEAR     46  43  87 CALM      30.00S
HEBER CITY     MOCLDY    36  36 100 CALM      30.09S
WEST JORDAN    CLEAR     45  43  93 CALM      30.01S

$$

UTZ012>022-026-027-211400-

SOUTHERN/CENTRAL UTAH

CITY           SKY/WX    TMP DP  RH WIND       PRES   REMARKS
BLANDING       CLOUDY    53  31  41 CALM      30.14R
BRYCE CANYON   CLOUDY    35  28  75 W6        30.10S WCI  30
CEDAR CITY     MOCLDY    38  33  82 CALM      29.98S
DELTA          PTCLDY    45  41  85 NE5       29.98S
HANKSVILLE     CLOUDY    48  36  61 CALM      30.00R
MILFORD        MOCLDY    41  34  76 NW3       29.98S
MOAB/CYNLANDS  CLEAR     56  39  53 SE9       29.96R
PRICE          PTCLDY    51  35  54 NW6       30.03R
ST GEORGE      SUNNY     55  27  33 S3        29.91R
KANAB          CLOUDY    46  32  57 N7        30.03R

$$

REGIONAL REPORTS     COLORADO/ARIZONA

CITY           SKY/WX    TMP DP  RH WIND       PRES   REMARKS
CRAIG, CO      MOSUNNY   37  35  92 CALM      30.16R FOG
GRAND JUNCTION CLOUDY    53  38  56 E10       30.03R
RIFLE          MOSUNNY   41  36  82 E3        30.10R
MONTROSE       CLOUDY    47  37  68 CALM      30.10R
CORTEZ         CLOUDY    52  41  66 E6        30.10R
PAGE, AZ       NOT AVBL
GRAND CANYON   CLOUDY    42  34  73 CALM      30.06S
KINGMAN        CLOUDY    61  25  25 SE8       29.91R
FLAGSTAFF      CLOUDY    37  31  78 CALM      30.09R

$$

REGIONAL REPORTS    NEVADA/IDAHO/WYOMING

CITY           SKY/WX    TMP DP  RH WIND       PRES   REMARKS
LAS VEGAS, NV  MOCLDY    66  28  24 SW9       29.78S
ELY            CLOUDY    35  30  82 S10       30.03S WCI  27
ELKO           PTCLDY    43  40  89 E3        29.98S
POCATELLO, ID  PTCLDY    46  45  96 E5        30.03R
BURLEY         CLOUDY    48  45  89 NE5       29.98R
EVANSTON, WY   MOCLDY    39  38  96 E12       30.12S WCI  32
ROCK SPRINGS   SUNNY     38  35  89 NE5       30.16R WCI  34
KEMMERER       CLOUDY    37  36  93 E10G16    30.16R WCI  30

$$



USA.gov is the U.S. government's official web portal to all federal, state and local government web resources and services.